Weather History for KENW - March, 2013

Change the Weather History Date:

Saturday, March 16, 2013

  Actual Average Record
Temperature  
Mean Temperature 30 °F -  
Max Temperature 32 °F 42 °F 70 °F (2015)
Min Temperature 27 °F 25 °F 12 °F (1949)
Degree Days  
Heating Degree Days 36    
Moisture  
Dew Point 25 °F    
Average Humidity 82    
Maximum Humidity 93    
Minimum Humidity 67    
Precipitation  
Precipitation 0.00 in - - ()
Sea Level Pressure  
Sea Level Pressure 29.94 in    
Wind  
Wind Speed 11 mph (NNE)    
Max Wind Speed 16 mph    
Max Gust Speed 22 mph    
Visibility 6 miles    
Events Snow    
Averages and records for this station are not official NWS values.
T = Trace of Precipitation, MM = Missing Value Source: NWS Daily Summary

Daily Weather History Graph

Daily Weather History Graph

Search for Another Location

Airport or City:

Trip Planner

Search our weather history database for the weather conditions in past years. The results will help you decide how hot, cold, wet, or windy it might be!

Date:

Astronomy

Mar. 16, 2013 Rise Set
Actual Time 7:01 AM CDT 6:59 PM CDT
Civil Twilight 6:33 AM CDT 7:27 PM CDT
Nautical Twilight 6:00 AM CDT 8:00 PM CDT
Astronomical Twilight 5:27 AM CDT 8:34 PM CDT
Moon 9:24 AM CDT (3/16) No Moon Set
Length of Visible Light 12h 54m
Length of Day
11h 58m
Waxing Crescent, 23% of the Moon is Illuminated
Mar 16
Waxing Crescent
Mar 19
First Quarter
Mar 27
Full
Apr 2
Last Quarter
Apr 10
New

Hourly Weather History & Observations

Time (CDT) Temp. Windchill Dew Point Humidity Pressure Visibility Wind Dir Wind Speed Gust Speed Precip Events Conditions
12:53 AM 32.0 °F 22.1 °F 28.9 °F 88% 29.81 in 10.0 mi NE 13.8 mph - N/A   Overcast
1:53 AM 32.0 °F 22.1 °F 28.9 °F 88% 29.79 in 10.0 mi NE 13.8 mph - 0.00 in   Overcast
2:53 AM 30.9 °F 20.7 °F 28.0 °F 89% 29.80 in 10.0 mi NNE 13.8 mph 21.9 mph N/A   Overcast
3:53 AM 30.9 °F 19.8 °F 28.0 °F 89% 29.79 in 10.0 mi NE 16.1 mph - N/A   Overcast
4:53 AM 30.9 °F 21.2 °F 28.0 °F 89% 29.79 in 3.0 mi NE 12.7 mph - N/A   Overcast
5:03 AM 30.2 °F 21.3 °F 28.4 °F 93% 29.75 in 2.5 mi ENE 10.4 mph - N/A   Overcast
5:20 AM 30.2 °F 20.8 °F 28.4 °F 93% 29.77 in 3.0 mi NE 11.5 mph - N/A   Overcast
5:53 AM 30.9 °F 22.2 °F 28.0 °F 89% 29.81 in 3.0 mi NNE 10.4 mph - N/A   Overcast
6:09 AM 30.2 °F 20.8 °F 28.4 °F 93% 29.79 in 2.5 mi NNE 11.5 mph - N/A   Overcast
6:53 AM 30.0 °F 20.0 °F 27.0 °F 88% 29.84 in 2.5 mi NNE 12.7 mph - N/A   Overcast
7:14 AM 30.2 °F 20.2 °F 26.6 °F 86% 29.82 in 1.5 mi NNE 12.7 mph - N/A   Overcast
7:53 AM 30.0 °F 20.0 °F 27.0 °F 88% 29.86 in 1.5 mi NNE 12.7 mph - N/A   Overcast
8:00 AM 30.2 °F 20.8 °F 26.6 °F 86% 29.84 in 2.0 mi NNE 11.5 mph - N/A   Overcast
8:53 AM 28.9 °F 17.3 °F 26.1 °F 89% 29.89 in 2.0 mi NNE 16.1 mph 21.9 mph N/A   Overcast
9:53 AM 28.9 °F 20.4 °F 26.1 °F 89% 29.94 in 4.0 mi NNE 9.2 mph 18.4 mph N/A   Overcast
10:05 AM 28.4 °F 18.0 °F 24.8 °F 86% 29.92 in 0.8 mi North 12.7 mph 19.6 mph 0.00 in Snow Light Snow
10:34 AM 28.4 °F 19.1 °F 24.8 °F 86% 29.94 in 3.0 mi North 10.4 mph - 0.00 in   Overcast
10:53 AM 28.0 °F 17.0 °F 24.1 °F 85% 29.98 in 3.0 mi North 13.8 mph - 0.00 in   Overcast
11:53 AM 27.0 °F 18.0 °F 23.0 °F 85% 30.01 in 4.0 mi NNW 9.2 mph - N/A   Haze
12:53 PM 28.0 °F 18.6 °F 23.0 °F 81% 30.03 in 5.0 mi North 10.4 mph - N/A   Haze
1:53 PM 28.9 °F 22.8 °F 23.0 °F 78% 30.02 in 5.0 mi NNE 5.8 mph - N/A   Haze
2:53 PM 30.0 °F 22.4 °F 23.0 °F 75% 30.01 in 10.0 mi North 8.1 mph - N/A   Overcast
3:53 PM 30.9 °F 25.2 °F 23.0 °F 72% 30.04 in 10.0 mi NW 5.8 mph - N/A   Overcast
4:53 PM 30.0 °F 26.5 °F 21.9 °F 72% 30.04 in 10.0 mi ENE 3.5 mph - N/A   Overcast
5:53 PM 30.0 °F - 21.9 °F 72% 30.04 in 10.0 mi Calm Calm - N/A   Overcast
6:00 PM 30.2 °F - 21.2 °F 69% 30.02 in 10.0 mi Calm Calm - N/A   Overcast
6:53 PM 28.9 °F 22.8 °F 21.9 °F 75% 30.06 in 10.0 mi ESE 5.8 mph - N/A   Overcast
7:53 PM 28.9 °F 25.2 °F 21.9 °F 75% 30.08 in 10.0 mi ESE 3.5 mph - N/A   Overcast
8:53 PM 28.9 °F - 21.9 °F 75% 30.10 in 10.0 mi Calm Calm - N/A   Overcast
9:53 PM 28.9 °F 22.8 °F 19.9 °F 69% 30.12 in 10.0 mi WNW 5.8 mph - N/A   Overcast
10:25 PM 28.4 °F 21.2 °F 19.4 °F 69% 30.10 in 10.0 mi WNW 6.9 mph - N/A   Overcast
10:53 PM 28.9 °F 22.8 °F 19.0 °F 67% 30.13 in 10.0 mi WNW 5.8 mph - N/A   Overcast
11:53 PM 28.9 °F 21.9 °F 19.9 °F 69% 30.14 in 10.0 mi West 6.9 mph - N/A   Overcast